Location: Waco, TX
(31.5480°N, 97.1670°W)
Time: 00:31:33
(UTC-06:00)

ISS - Pass Details

Date: 16 December 2017
Orbit: 403 x 407 km, 51.6° (Epoch: 12 December)

Event Time Altitude Azimuth Distance (km) Brightness Sun altitude
Rises 17:48:58 0° 325° (NW) 2,324 0.2 -4.9°
Reaches altitude 10° 17:51:14 10° 338° (NNW) 1,461 -1.0 -5.4°
Maximum altitude 17:54:06 27° 39° (NE) 804 -2.8 -5.9°
Drops below altitude 10° 17:56:58 10° 100° (E) 1,454 -1.5 -6.5°
Enters shadow 17:58:57 - 112° (ESE) 2,201 -0.5 -6.9°
Sets 17:59:13 0° 113° (ESE) 2,309 - -6.9°
